Location: Newark
(43.4306°N, 0.3089°E)
Time: 06:03:07
(UTC+00:00)

S-56A Canister/Altair - Pass Details

Date: 23 August 2019
Orbit: 633 x 2499 km, 38.9° (Epoch: 13 September)

Event Time Altitude Azimuth Distance (km) Brightness Sun altitude
Rises 19:31:09 0° 215° (SW) 3,580 11.1 -7.9°
Reaches altitude 10° 19:34:43 10° 198° (SSW) 2,379 10.0 -8.4°
Maximum altitude 19:38:18 18° 155° (SSE) 1,682 8.8 -9.0°
Enters shadow 19:40:53 12° 117° (ESE) 1,918 8.9 -9.5°
Drops below altitude 10° 19:41:29 10° 111° (ESE) 2,057 - -9.6°
Sets 19:44:16 0° 91° (E) 2,921 - -10.0°
